Simultaneous Nadir Overpasses (SNOs) Predictions

Prediction of SNOs between METOP-B and TERRA Satellite Orbit:

Table of predicted SNOs for the next 14.0 days since TLE Epoch: 8/15/2025
Index Date (METOP-B) Time (METOP-B) Lat,Lon (METOP-B) SZA (METOP-B ) Date (TERRA) Time (TERRA) Lat,Lon (TERRA) SZA (TERRA ) Distance(km) Time Diff (sec)
1 08/17/2025 20:32:34 -77.57, 50.37 115.62 08/17/2025 20:32:53 -77.57, 50.35 115.62 0.48 19
2 08/17/2025 21:23:02 78.09,-139.81 64.91 08/17/2025 21:22:00 78.10,-139.76 64.91 1.39 62
3 08/20/2025 09:21:43 -77.16,-143.72 115.18 08/20/2025 09:22:37 -77.16,-143.67 115.18 1.29 54
4 08/20/2025 10:12:09 77.77, 26.32 65.42 08/20/2025 10:11:42 77.78, 26.42 65.43 2.70 27
5 08/22/2025 23:01:15 77.43,-167.48 65.94 08/22/2025 23:01:23 77.44,-167.38 65.95 2.60 8
6 08/22/2025 23:51:41 -78.08, 2.91 113.41 08/22/2025 23:50:29 -78.09, 2.98 113.41 1.57 72
7 08/25/2025 11:50:20 77.18, -0.86 66.57 08/25/2025 11:51:03 77.18, -0.82 66.56 1.11 43
8 08/25/2025 12:40:46 -77.84, 169.44 112.79 08/25/2025 12:40:09 -77.85, 169.47 112.78 0.80 37
9 08/28/2025 00:42:33 67.35, 145.90 59.72 08/28/2025 00:43:46 67.10, 147.39 59.18 70.03 73



Historial Predications of SNOs between METOP-B and TERRA
